HULIANWAN GAOGUI-01 (H*)

Last updated on Mon Sep 14 2026 00:03:02 GMT+0000 (Coordinated Universal Time)

1 59069U 24040A 26256.58390718 .00000145 00000+0 00000+0 0 9999 2 59069 0.0904 337.8850 0001629 39.3607 219.2002 1.00275736 8212
UTC large
Height (km)
Speed (km/s)
/
Latitude / Longitude
Inclination (degrees)
Orbital Period (minutes)
Azimuth
Elevation
Range (km)
Doppler Factor

Next 0 passes for location: London (51.5072 / 0.1276)

No passes found over London.
HULIANWAN GAOGUI-01 (H*)